SCP
-0 -0 -0 -0 -0 0 0 0 0 0 0 0 0 0 0 0 0 0 0 0 0 0
-0 -0 -0 -0 0 0 0 0 0 0 0 0 0 0 0 0 0 0 0 0 0 0
-0 -0 0 0 0 0 0 0 0 0 0 0 0 0 0 0 0 0 0 0 0 0
0 0 0 0 0 0 0 0 0 0 0 0 0 0 0 0 0 0 0 0 0 0
0 0 0 0 0 0 0 0 0 0 0 0 0 0 0 0 0 0 0 0 0 0
0 0 0 0 0 0 0 0 0 0 0 0 0 0 0 0 0 0 0 0 0 0
0 0 0 0 0 0 0 0 0 0 0 0 0 0 0 0 0 0 0 0 0 0
0 0 0 0 0 0 0 0 0 0 0 0 0 0 0 0 0 0 0 0 0 0
0 0 0 0 0 0 0 0 0 0 0 0 0 0 0 0 0 0 0 0 0 0
0 0 0 0 0 0 0 0 0 0 0 0 0 0 0 0 0 0 0 0 0 0
0 0 0 0 0 0 0 0 0 0 0 0 0 0 0 0 0 0 0 0 0 0
0 0 0 0 0 0 0 0 0 0 0 0 0 0 0 0 0 0 0 0 0 0
0 0 0 0 0 0 0 0 0 0 0 0 0 0 0 0 0 0 0 0 0 0
0 0 0 0 0 0 0 0 0 0 0 0 0 0 0 0 0 0 0 0 0 0
Wind_Speed_500mb
19 23 24 24 26 28 30 33 36 39 40 41 42 43 43 44 44 43 41 41 39 40
19 24 26 25 25 27 30 32 36 39 40 41 43 44 45 45 44 43 43 43 43 42
20 26 29 29 27 28 30 33 36 38 40 41 43 44 45 46 46 45 45 45 44 45
22 28 32 32 31 31 32 35 38 40 40 42 44 43 45 46 45 46 46 45 45 47
25 31 35 35 34 34 35 39 41 41 43 43 44 44 44 45 45 46 45 45 45 47
30 34 38 38 36 36 37 42 43 44 45 45 44 44 45 44 46 45 45 44 45 47
37 40 42 40 37 35 40 43 45 46 47 47 46 46 45 44 45 45 44 44 45 47
42 43 45 40 36 38 42 44 46 47 47 47 47 46 46 46 47 47 46 46 45 47
44 46 45 41 39 42 44 46 48 48 48 48 48 47 45 48 48 48 48 49 48 50
44 47 44 44 46 46 46 48 48 49 50 50 48 46 46 48 50 49 48 50 52 53
41 44 46 49 53 51 51 52 50 50 52 51 48 46 48 50 51 51 49 48 50 54
43 47 49 55 56 55 56 55 52 53 52 52 47 49 51 52 53 53 52 48 48 52
50 53 57 59 57 56 57 55 53 53 51 52 50 49 53 55 56 57 56 54 50 48
58 61 62 60 58 57 57 57 55 54 52 52 53 52 53 52 53 54 57 57 55 50
Wind_Direction_500mb
2 357 351 348 348 351 353 354 354 354 352 352 352 353 354 354 354 354 351 351 349 349
345 342 336 334 334 337 342 345 346 346 346 346 347 347 348 349 348 346 346 345 344 343
329 330 323 317 318 323 328 334 337 338 340 340 341 341 342 342 342 342 341 340 338 339
317 325 321 311 303 309 316 324 328 331 334 334 335 336 336 336 336 336 336 336 337 338
308 318 321 311 299 298 307 316 322 325 328 328 329 330 331 331 331 331 331 332 334 335
299 310 318 312 297 292 300 309 315 319 322 323 324 325 325 326 326 327 327 328 331 331
293 304 315 309 297 291 297 305 310 314 317 319 320 321 321 321 321 321 322 324 326 326
290 301 310 306 296 293 297 301 305 309 311 314 316 317 316 318 319 319 319 319 320 321
290 301 304 300 295 295 300 300 301 304 305 310 312 312 313 316 315 315 315 315 317 318
292 299 299 292 290 294 300 299 299 299 301 305 308 307 309 312 311 312 313 314 315 315
293 296 295 288 286 289 295 297 295 296 295 299 303 302 306 307 307 307 307 308 310 314
289 296 298 295 290 286 286 294 294 292 291 295 297 298 302 303 302 302 303 305 311 315
289 295 297 297 289 281 284 290 288 288 289 292 293 295 299 300 300 300 304 305 308 315
295 296 298 296 285 280 282 285 286 286 286 287 289 292 295 296 298 301 303 305 311 313
Wind_Speed_850mb
19 23 24 24 26 28 30 33 36 39 40 41 42 43 43 44 44 43 41 41 39 40
19 24 26 25 25 27 30 32 36 39 40 41 43 44 45 45 44 43 43 43 43 42
20 26 29 29 27 28 30 33 36 38 40 41 43 44 45 46 46 45 45 45 44 45
22 28 32 32 31 31 32 35 38 40 40 42 44 43 45 46 45 46 46 45 45 47
25 31 35 35 34 34 35 39 41 41 43 43 44 44 44 45 45 46 45 45 45 47
30 34 38 38 36 36 37 42 43 44 45 45 44 44 45 44 46 45 45 44 45 47
37 40 42 40 37 35 40 43 45 46 47 47 46 46 45 44 45 45 44 44 45 47
42 43 45 40 36 38 42 44 46 47 47 47 47 46 46 46 47 47 46 46 45 47
44 46 45 41 39 42 44 46 48 48 48 48 48 47 45 48 48 48 48 49 48 50
44 47 44 44 46 46 46 48 48 49 50 50 48 46 46 48 50 49 48 50 52 53
41 44 46 49 53 51 51 52 50 50 52 51 48 46 48 50 51 51 49 48 50 54
43 47 49 55 56 55 56 55 52 53 52 52 47 49 51 52 53 53 52 48 48 52
50 53 57 59 57 56 57 55 53 53 51 52 50 49 53 55 56 57 56 54 50 48
58 61 62 60 58 57 57 57 55 54 52 52 53 52 53 52 53 54 57 57 55 50
Wind_Direction_850mb
2 357 351 348 348 351 353 354 354 354 352 352 352 353 354 354 354 354 351 351 349 349
345 342 336 334 334 337 342 345 346 346 346 346 347 347 348 349 348 346 346 345 344 343
329 330 323 317 318 323 328 334 337 338 340 340 341 341 342 342 342 342 341 340 338 339
317 325 321 311 303 309 316 324 328 331 334 334 335 336 336 336 336 336 336 336 337 338
308 318 321 311 299 298 307 316 322 325 328 328 329 330 331 331 331 331 331 332 334 335
299 310 318 312 297 292 300 309 315 319 322 323 324 325 325 326 326 327 327 328 331 331
293 304 315 309 297 291 297 305 310 314 317 319 320 321 321 321 321 321 322 324 326 326
290 301 310 306 296 293 297 301 305 309 311 314 316 317 316 318 319 319 319 319 320 321
290 301 304 300 295 295 300 300 301 304 305 310 312 312 313 316 315 315 315 315 317 318
292 299 299 292 290 294 300 299 299 299 301 305 308 307 309 312 311 312 313 314 315 315
293 296 295 288 286 289 295 297 295 296 295 299 303 302 306 307 307 307 307 308 310 314
289 296 298 295 290 286 286 294 294 292 291 295 297 298 302 303 302 302 303 305 311 315
289 295 297 297 289 281 284 290 288 288 289 292 293 295 299 300 300 300 304 305 308 315
295 296 298 296 285 280 282 285 286 286 286 287 289 292 295 296 298 301 303 305 311 313